HIMAWARI-7 (MTSAT-2)

Last updated on Jan. 28, 2020, 4:40 a.m. UTC

1 28937U 06004A   20027.85680691 -.00000246  00000-0  00000+0 0  9995
2 28937   0.0684 280.6889 0002793  10.2112 289.1091  1.00273945 50969
UTC
Height (km)
Latitude
Longitude
Inclination
Orbital Period
UTC large
Height (km)
Speed (km/s)
/
Latitude / Longitude
Inclination (degrees)
Orbital Period (minutes)
Azimuth
Elevation
Range (km)
Doppler Factor
iOS Compass Heading
iOS Angle

Next 30 passes for location: Hong Kong

Rise time Rise Azimuth (degrees) Set time Set Azimuth (degrees) Duration Max altitude (degrees)

No matching passes for this satellites